Manhattan, KS

2:40 AM CST on January 22, 2017 (GMT -0600)
Manhattan Regional

Weather History for KMHK - July, 2013

Change the Weather History Date:

Friday, July 12, 2013

  Actual Average Record
Temperature  
Mean Temperature 85 °F 79 °F  
Max Temperature 99 °F 91 °F 100 °F (2012)
Min Temperature 70 °F 67 °F 54 °F (1999)
Degree Days  
Heating Degree Days 0 0  
Month to date heating degree days 0 0  
Since 1 June heating degree days 9 11  
Since 1 July heating degree days 0 0  
Cooling Degree Days 20 14  
Month to date cooling degree days 175 162  
Year to date cooling degree days 629 532  
Since 1 June cooling degree days 493 432  
Growing Degree Days 35 (Base 50)    
Moisture  
Dew Point 66 °F    
Average Humidity 56    
Maximum Humidity 73    
Minimum Humidity 39    
Precipitation  
Precipitation 0.00 in 0.12 in 0.39 in (2008)
Month to date precipitation 0.37 1.72  
Year to date precipitation 13.16 18.01  
Sea Level Pressure  
Sea Level Pressure 29.93 in    
Wind  
Wind Speed 9 mph (SE)    
Max Wind Speed 20 mph    
Max Gust Speed 25 mph    
Visibility 10 miles    
Events      
T = Trace of Precipitation, MM = Missing Value Source: NWS Daily Summary

Daily Weather History Graph

Daily Weather History Graph

Search for Another Location

Airport or City:

Trip Planner

Search our weather history database for the weather conditions in past years. The results will help you decide how hot, cold, wet, or windy it might be!

Date:

Astronomy

Jul. 12, 2013 Rise Set
Actual Time 6:11 AM CDT 8:53 PM CDT
Civil Twilight 5:39 AM CDT 9:24 PM CDT
Nautical Twilight 5:00 AM CDT 10:04 PM CDT
Astronomical Twilight 4:15 AM CDT 10:48 PM CDT
Moon 10:26 AM CDT (7/12) 11:06 PM CDT (7/12)
Length of Visible Light 15h 45m
Length of Day
14h 42m
Waxing Crescent, 17% of the Moon is Illuminated
Jul 12
Waxing Crescent
Jul 15
First Quarter
Jul 22
Full
Jul 29
Last Quarter
Aug 6
New

Hourly Weather History & Observations

Time (CDT) Temp. Heat Index Dew Point Humidity Pressure Visibility Wind Dir Wind Speed Gust Speed Precip Events Conditions
12:52 AM 73.9 °F - 60.1 °F 62% 29.96 in 10.0 mi Calm Calm - N/A   Clear
1:52 AM 72.0 °F - 61.0 °F 68% 29.96 in 10.0 mi NE 3.5 mph - N/A   Clear
2:52 AM 72.0 °F - 61.0 °F 68% 29.95 in 10.0 mi Calm Calm - N/A   Clear
3:52 AM 73.0 °F - 60.1 °F 64% 29.95 in 10.0 mi Variable 3.5 mph - N/A   Clear
4:52 AM 73.0 °F - 61.0 °F 66% 29.95 in 10.0 mi East 3.5 mph - N/A   Clear
5:52 AM 72.0 °F - 61.0 °F 68% 29.95 in 10.0 mi East 4.6 mph - N/A   Clear
6:52 AM 72.0 °F - 62.1 °F 71% 29.96 in 10.0 mi East 5.8 mph - N/A   Clear
7:52 AM 73.9 °F - 62.1 °F 66% 29.97 in 10.0 mi ESE 6.9 mph - N/A   Clear
8:52 AM 78.1 °F - 64.0 °F 62% 29.96 in 10.0 mi SSE 10.4 mph - N/A   Clear
9:52 AM 82.9 °F 84.6 °F 64.9 °F 54% 29.96 in 10.0 mi SSE 9.2 mph - N/A   Clear
10:52 AM 84.9 °F 87.6 °F 66.9 °F 55% 29.96 in 10.0 mi SE 9.2 mph - N/A   Clear
11:52 AM 90.0 °F 94.5 °F 69.1 °F 50% 29.95 in 10.0 mi ESE 11.5 mph - N/A   Clear
12:52 PM 91.9 °F 96.9 °F 69.1 °F 47% 29.94 in 10.0 mi SSE 11.5 mph 17.3 mph N/A   Clear
1:52 PM 96.1 °F 102.9 °F 70.0 °F 43% 29.92 in 10.0 mi SSE 10.4 mph - N/A   Clear
2:52 PM 97.0 °F 102.8 °F 69.1 °F 40% 29.90 in 10.0 mi SE 15.0 mph - N/A   Clear
3:52 PM 98.1 °F 104.4 °F 69.1 °F 39% 29.89 in 10.0 mi SE 15.0 mph 23.0 mph N/A   Clear
4:52 PM 98.1 °F 104.4 °F 69.1 °F 39% 29.88 in 10.0 mi SSE 15.0 mph 18.4 mph N/A   Partly Cloudy
5:52 PM 97.0 °F 102.8 °F 69.1 °F 40% 29.87 in 10.0 mi SSE 17.3 mph 21.9 mph N/A   Partly Cloudy
6:52 PM 95.0 °F 101.3 °F 70.0 °F 44% 29.87 in 10.0 mi SE 11.5 mph - N/A   Clear
7:52 PM 93.0 °F 99.0 °F 70.0 °F 47% 29.87 in 10.0 mi SE 9.2 mph - N/A   Clear
8:52 PM 90.0 °F 95.4 °F 70.0 °F 52% 29.88 in 10.0 mi SE 9.2 mph - N/A   Clear
9:52 PM 87.1 °F 92.0 °F 70.0 °F 57% 29.90 in 10.0 mi SE 9.2 mph - N/A   Clear
10:52 PM 84.9 °F 88.8 °F 69.1 °F 59% 29.91 in 10.0 mi SSE 10.4 mph - N/A   Clear
11:52 PM 82.9 °F 86.5 °F 69.1 °F 63% 29.92 in 10.0 mi SSE 9.2 mph - N/A   Clear